Estherville, IA

2:36 AM CDT on July 26, 2017 (GMT -0500)
Estherville Municipal

Weather History for KEST - June, 2014

Change the Weather History Date:

Friday, June 6, 2014

  Actual Average Record
Temperature  
Mean Temperature 71 °F 66 °F  
Max Temperature 84 °F 77 °F 98 °F (2011)
Min Temperature 58 °F 54 °F 41 °F (1983)
Degree Days  
Heating Degree Days 0 2  
Month to date heating degree days 5 17  
Since 1 June heating degree days 5 17  
Since 1 July heating degree days 8548 7715  
Cooling Degree Days 6 3  
Month to date cooling degree days 14 16  
Year to date cooling degree days 63 52  
Since 1 June cooling degree days 14 16  
Growing Degree Days 20 (Base 50)    
Moisture  
Dew Point 60 °F    
Average Humidity 70    
Maximum Humidity 100    
Minimum Humidity 40    
Precipitation  
Precipitation 0.00 in 0.14 in 0.57 in (2003)
Month to date precipitation 2.12 0.95  
Sea Level Pressure  
Sea Level Pressure 29.92 in    
Wind  
Wind Speed 6 mph (SW)    
Max Wind Speed 15 mph    
Max Gust Speed 19 mph    
Visibility 6 miles    
Events Fog    
T = Trace of Precipitation, MM = Missing Value Source: NWS Daily Summary

Daily Weather History Graph

Daily Weather History Graph

Search for Another Location

Airport or City:

Trip Planner

Search our weather history database for the weather conditions in past years. The results will help you decide how hot, cold, wet, or windy it might be!

Date:

Astronomy

Jun. 06, 2014 Rise Set
Actual Time 5:39 AM CDT 8:56 PM CDT
Civil Twilight 5:03 AM CDT 9:31 PM CDT
Nautical Twilight 4:18 AM CDT 10:17 PM CDT
Astronomical Twilight 3:22 AM CDT 11:14 PM CDT
Moon 2:05 PM CDT (6/6) 1:42 AM CDT (6/6)
Length of Visible Light 16h 27m
Length of Day
15h 17m
First Quarter, 58% of the Moon is Illuminated
Jun 6
First Quarter
Jun 12
Full
Jun 19
Last Quarter
Jun 27
New
Jul 5
First Quarter

Hourly Weather History & Observations

Time (CDT) Temp. Heat Index Dew Point Humidity Pressure Visibility Wind Dir Wind Speed Gust Speed Precip Events Conditions
12:52 AM 60.1 °F - 60.1 °F 100% 29.91 in 8.0 mi SSW 6.9 mph - N/A   Clear
1:52 AM 60.1 °F - 60.1 °F 100% 29.90 in 6.0 mi SSW 6.9 mph - N/A   Clear
2:52 AM 60.1 °F - 60.1 °F 100% 29.90 in 5.0 mi SSW 6.9 mph - N/A   Clear
3:52 AM 59.0 °F - 59.0 °F 100% 29.91 in 3.0 mi SSW 4.6 mph - N/A   Clear
4:50 AM 57.9 °F - 57.9 °F 100% 29.91 in 1.8 mi SSW 4.6 mph - N/A   Clear
5:02 AM 57.9 °F - 57.9 °F 100% 29.92 in 2.0 mi SW 4.6 mph - N/A   Partly Cloudy
5:17 AM 60.1 °F - 60.1 °F 100% 29.92 in 1.8 mi SW 8.1 mph - N/A   Mostly Cloudy
5:21 AM 61.0 °F - 61.0 °F 100% 29.92 in 0.8 mi SW 8.1 mph - N/A   Mostly Cloudy
5:52 AM 61.0 °F - 61.0 °F 100% 29.92 in 0.2 mi WSW 8.1 mph - N/A Fog Fog
6:52 AM 61.0 °F - 61.0 °F 100% 29.94 in 0.2 mi SW 6.9 mph - N/A Fog Fog
7:52 AM 62.1 °F - 62.1 °F 100% 29.94 in 1.0 mi WSW 9.2 mph - N/A   Overcast
7:59 AM 62.1 °F - 62.1 °F 100% 29.96 in 1.5 mi SW 9.2 mph - N/A   Overcast
8:11 AM 62.1 °F - 62.1 °F 100% 29.96 in 3.0 mi WSW 10.4 mph - N/A   Overcast
8:52 AM 64.0 °F - 64.0 °F 100% 29.95 in 5.0 mi SW 6.9 mph - N/A   Mostly Cloudy
9:00 AM 64.9 °F - 64.9 °F 100% 29.95 in 6.0 mi WSW 5.8 mph - N/A   Scattered Clouds
10:52 AM 73.9 °F - 66.0 °F 76% 29.94 in 10.0 mi Calm Calm - N/A   Clear
11:52 AM 78.1 °F - 64.0 °F 62% 29.93 in 10.0 mi West 4.6 mph - N/A   Clear
12:52 PM 80.1 °F 80.4 °F 57.0 °F 45% 29.93 in 10.0 mi West 6.9 mph - N/A   Partly Cloudy
1:52 PM 81.0 °F 80.8 °F 55.9 °F 42% 29.93 in 10.0 mi SSW 6.9 mph - N/A   Scattered Clouds
2:52 PM 82.0 °F 82.0 °F 57.9 °F 44% 29.91 in 10.0 mi SW 8.1 mph - N/A   Clear
3:52 PM 81.0 °F 81.0 °F 57.0 °F 44% 29.91 in 10.0 mi Variable 3.5 mph - N/A   Mostly Cloudy
4:52 PM 82.0 °F 81.7 °F 57.0 °F 42% 29.88 in 10.0 mi South 8.1 mph - N/A   Clear
5:52 PM 82.9 °F 82.1 °F 55.9 °F 39% 29.87 in 10.0 mi Calm Calm - N/A   Clear
6:52 PM 80.1 °F 80.4 °F 57.0 °F 45% 29.87 in 10.0 mi South 5.8 mph - N/A   Clear
7:52 PM 81.0 °F 81.0 °F 57.0 °F 44% 29.89 in 10.0 mi Calm Calm - N/A   Clear
8:52 PM 75.9 °F - 62.1 °F 62% 29.92 in 10.0 mi North 11.5 mph - N/A   Mostly Cloudy
9:52 PM 73.0 °F - 61.0 °F 66% 29.89 in 10.0 mi NNE 11.5 mph - N/A   Scattered Clouds
10:52 PM 71.1 °F - 60.1 °F 68% 29.90 in 10.0 mi NNE 11.5 mph - N/A   Scattered Clouds
11:52 PM 69.1 °F - 60.1 °F 73% 29.91 in 10.0 mi North 8.1 mph - N/A   Mostly Cloudy